Regional Weather Roundup
Issued by NWS Charleston, SC

Current Version | Previous Version | Graphics & Text | Print | Product List | Glossary On
Versions: 1 2 3 4 5 6 7 8 9 10 11 12 13 14 15 16 17 18 19 20 21 22 23 24 25 26 27 28 29 30 31 32 33 34 35 36 37 38 39 40 41 42 43 44 45 46 47 48 49 50
000
ASUS42 KCHS 012226
RWRCHS

REGIONAL WEATHER ROUNDUP
NATIONAL WEATHER SERVICE CHARLESTON SC
600 PM EDT WED APR 01 2015

NOTE: "FAIR" INDICATES FEW OR NO CLOUDS BELOW 12,000 FEET WITH NO
SIGNIFICANT WEATHER AND/OR OBSTRUCTIONS TO VISIBILITY.

NOT ALL STATIONS ARE QUALITY CONTROLLED BY THE NATIONAL
WEATHER SERVICE. USE DATA WITH CAUTION...ESPECIALLY
DEWPOINT OBSERVATIONS.

SCZ027-030-031-034>040-042>050-012300-
...SOUTHEAST SOUTH CAROLINA...

CITY           SKY/WX    TMP DP  RH WIND       PRES   REMARKS
N CHARLESTON   MOSUNNY   64  51  62 E14       30.11R
WATERFRONT PRK NOT AVBL
MOUNT PLEASANT FAIR      61  52  72 NE5       30.13R
PINOPOLIS        N/A     73  48  40 E5        30.00R
MONCKS CORNER  FAIR      68  48  49 SE9       30.10R
SUMMERVILLE    FAIR      70  54  56 SE7       30.10R
BEAUFORT MCAS  PTSUNNY   64  56  75 E16       30.09R
BEAUFORT ARPT  FAIR      63  55  77 E12G20    30.10R HAZE
HILTON HEAD IS SUNNY     64  57  77 E10       30.10R
WALTERBORO     MOCLDY    70  55  60 SE9       30.08R
ALLENDALE      FAIR      77  55  47 VRB5      30.04R

...SOUTHERN MIDLANDS AND PEE DEE...

CITY           SKY/WX    TMP DP  RH WIND       PRES   REMARKS
GEORGETOWN     NOT AVBL
KINGSTREE      NOT AVBL
ORANGEBURG     SUNNY     75  44  33 NE8       30.07R
BARNWELL       FAIR      77  50  38 E9        30.06R
AIKEN          FAIR      75  37  25 NE8       30.08R
MANNING        FAIR      72  37  28 CALM      30.09R
COLUMBIA       MOSUNNY   76  42  29 CALM      30.06R
SUMTER         SUNNY     74  42  31 VRB3      30.07R
FLORENCE       SUNNY     72  40  31 NE7       30.09R
MYRTLE BEACH   SUNNY     61  46  59 SE14      30.14R
N MYRTLE BEACH SUNNY     59  46  62 E14       30.12R

$$

GAZ063-065-086>088-099>101-113>116-118-119-134>141-150-012300-
...SOUTHEAST GEORGIA...

CITY           SKY/WX    TMP DP  RH WIND       PRES   REMARKS
SAVANNAH ARPT  MOSUNNY   70  56  61 E21       30.05R
HUNTER AAF     SUNNY     71  59  66 E15       30.04R
FORT STEWART   MOSUNNY   81  52  37 N7        30.02R
STATESBORO     CLOUDY    78  59  51 S6        30.04R
SYLVANIA       PTCLDY    77  60  54 SE3       30.04R
CLAXTON        FAIR      79  57  47 CALM      30.04R

...CSRA...CENTRAL AND FAR SOUTHEAST GEORGIA...

CITY           SKY/WX    TMP DP  RH WIND       PRES   REMARKS
THOMSON        MOSUNNY   82  52  35 CALM      30.06S
AUGUSTA-BUSH   MOSUNNY   80  47  31 CALM      30.01R
AUGUSTA-DANIEL MOSUNNY   81  49  32 NE7       30.03R
SWAINSBORO     FAIR      79  43  27 S6        30.03S
VIDALIA        MOSUNNY   79  55  44 SW6       30.04R
EASTMAN        MOCLDY    82  55  39 CALM      30.06R
HAZLEHURST     FAIR      81  52  36 CALM      30.02S
ALMA           SUNNY     80  52  37 SW3       30.03R
WAYCROSS       SUNNY     84  57  39 N5        30.03S
JESUP          FAIR      82  55  39 N5        30.04R
BAXLEY         FAIR      81  54  39 CALM      30.04R
BRUNSWICK      SUNNY     73  54  49 E14       30.06R
SAINT SIMONS   SUNNY     68  59  73 E12       30.05R

$$

SCZ027-028-034-036>038-045-046-048>050-GAZ119-141-012300-
...LAKE AND SUPPLEMENTAL COASTAL OBSERVATIONS...

STATION/POSITION TIME  TEMP    WIND        PRES    WAVE   SWELL
                       AIR SEA DIR/SP/G            HT/PER HT/PER/DIR
                 (UTC) (F)     (DEG/KT/KT) (MB)    (FT/S) (FT/S/D)
UPR LAKE MARION  NOT AVBL
WINYAH BAY       2145   58      90/ 11     1019.0R
LAKE MURRAY      2200   73     190/  5/  5 1017.6R
ACE BASIN NERRS  NOT AVBL
FORT PULASKI     2200   61 62   70/ 18/ 20 1018.9R
SAPELO ISLAND    2200   70      80/ 13     1017.0S

$$

ANZ835-935-AMZ111-154-330-350-352-354-370-450-454-472-012300-
...C-MAN AND BUOY OBSERVATIONS...

STATION/POSITION TIME  TEMP    WIND        PRES    WAVE   SWELL
                       AIR SEA DIR/SP/G            HT/PER HT/PER/DIR
                 (UTC) (F)     (DEG/KT/KT) (MB)    (FT/S) (FT/S/D)
BUOY 41004       2150   64 69   50/ 19/ 23 1018.3R   6/ 6   2/16
BUOY 41008       2150   65 62   70/ 12/ 14 1018.2R   1/ 4
FOLLY BEACH CMAN 2200   59      60/ 17/ 19 1019.8R
CAPERS NEARSHORE NOT AVBL
FRIPP NEARSHORE  2100   61      80/ 16/ 19 1017.9S


STATION/POSITION TIME  TEMP    WIND        PRES    WAVE   SWELL
                       AIR SEA DIR/SP/G            HT/PER HT/PER/DIR
                 (UTC) (F)     (DEG/KT/KT) (MB)    (FT/S) (FT/S/D)
5E ST. MARYS GA  2121      64                N/A     1/11
FRYING PAN BUOY  2150   59 63   80/ 17/ 21 1020.1R   6/ 7   2/190/11
BUOY 41025       NOT AVBL
CAPE LOOKOUT NC  2200   51      50/ 16/ 17 1021.4R
BUOY 41002       2150   66 69   30/ 19/ 21 1017.6R   6/ 8   5/270/ 8
BUOY 41010       2120   74 76  280/ 12/ 16 1017.9R
ST AUGUSTINE FL  2200      62   50/ 16/ 18 1017.8R


$$



USA.gov is the U.S. government's official web portal to all federal, state and local government web resources and services.